Theta_e
322 320 316 316 321 322 324 325 322 321 319 312 311 307 307 309 308 307 307 306 305 308 308 303 304 304 301 305 306 306 305 303 307 307 307 307 308 313 315 316 319 318 322 322 323 325 325
322 322 321 319 320 321 323 325 323 320 320 315 312 308 306 307 307 307 306 306 306 306 307 306 302 305 304 306 304 305 304 304 305 307 307 308 312 313 315 317 317 319 322 323 323 324 324
320 321 322 322 321 321 323 324 325 321 321 318 312 309 306 306 306 306 305 304 306 307 306 305 305 305 303 303 304 305 304 304 306 307 306 309 310 312 315 317 319 319 321 322 323 323 324
317 319 320 321 321 321 322 323 324 323 321 319 313 309 307 306 304 303 303 303 304 303 302 302 304 304 305 305 305 304 303 305 306 306 306 307 310 311 315 316 318 320 317 323 318 320 321
311 315 317 318 319 320 321 324 323 323 323 320 315 308 307 305 303 301 302 303 303 302 301 304 306 306 307 306 305 306 306 306 307 307 307 308 308 312 313 315 319 318 319 319 319 317 320
305 305 309 314 316 318 320 321 322 323 323 321 315 308 307 305 302 302 303 302 304 305 303 306 307 307 307 307 304 305 306 306 307 308 308 310 311 314 314 313 320 320 317 318 319 319 320
304 304 302 303 306 311 315 319 321 323 324 321 316 310 306 305 301 302 304 306 307 307 306 306 307 308 308 306 305 305 305 307 308 309 309 310 313 312 314 313 316 316 317 318 317 316 318
302 304 304 303 301 303 308 314 318 319 323 321 317 309 305 303 301 304 303 306 306 304 304 308 308 308 307 307 304 306 307 308 309 310 310 312 314 313 313 313 317 318 319 320 317 317 320
302 303 304 303 303 302 304 310 313 315 321 321 318 306 306 302 302 305 306 305 304 303 306 309 309 309 308 308 307 305 306 307 310 310 311 311 313 314 316 313 318 317 318 318 321 319 320
301 303 304 304 304 303 303 308 311 313 318 321 318 308 306 302 304 305 305 305 302 302 299 308 310 309 310 308 309 309 308 310 310 313 313 314 311 314 316 316 317 318 316 316 317 319 322
301 301 302 302 303 303 303 303 307 311 314 318 319 307 305 301 306 306 307 303 302 307 300 306 309 309 310 309 309 310 310 311 314 314 313 315 312 317 317 317 316 317 316 317 317 319 319
302 301 301 302 302 302 303 303 305 311 312 316 317 305 303 302 304 307 306 303 306 300 298 308 310 310 311 310 311 310 312 312 312 313 315 316 315 315 315 315 315 316 318 318 316 316 318
300 300 300 301 301 301 303 304 307 309 312 316 315 305 301 305 306 306 303 307 302 299 304 308 311 311 310 311 311 311 312 313 313 315 315 316 315 314 313 315 315 317 316 318 320 316 316
300 300 300 299 300 301 302 302 305 310 312 314 311 304 304 306 307 304 306 302 302 304 307 309 310 309 309 310 310 311 311 310 311 311 311 312 317 315 313 314 315 315 313 314 317 317 314
299 299 299 299 301 302 301 300 305 308 311 313 307 304 306 306 306 305 307 298 303 306 310 311 311 311 310 311 311 311 312 311 311 312 310 310 313 312 314 313 313 314 312 311 311 308 312
298 298 298 299 300 299 300 299 304 311 311 310 304 305 306 306 306 306 304 305 306 309 309 311 312 311 310 311 311 311 312 311 311 312 311 311 311 313 314 313 313 313 311 312 308 312 314
297 297 298 298 297 297 299 298 302 307 308 305 305 306 306 306 305 307 305 302 309 310 312 310 313 312 311 311 309 311 311 312 312 313 310 309 309 312 312 313 314 313 313 312 308 310 312
297 297 297 297 296 295 299 299 303 304 305 304 305 307 306 305 306 307 306 307 310 310 311 311 310 312 310 309 309 309 312 312 313 311 311 312 310 308 314 312 313 313 314 310 309 311 306
296 296 297 296 296 296 298 299 302 303 305 306 306 306 307 305 306 307 305 308 310 310 310 311 311 312 311 310 311 312 312 312 312 311 311 310 308 307 309 309 310 313 314 314 309 307 306
297 297 297 297 296 297 299 299 302 307 306 306 306 305 306 305 306 304 305 309 311 311 311 310 310 311 312 312 311 312 313 313 312 311 311 310 308 307 307 309 309 313 313 313 310 304 310
297 297 297 298 297 297 299 299 302 306 307 306 306 306 305 307 305 305 305 308 311 312 310 309 309 310 312 311 311 312 312 314 313 312 311 309 308 304 310 311 311 311 312 312 311 312 311
297 297 297 297 297 298 297 299 302 306 306 305 306 305 305 303 304 304 305 308 311 310 309 309 309 309 310 310 310 311 311 313 313 310 311 308 307 307 307 309 309 310 309 310 310 312 312
297 297 298 297 298 298 298 302 305 304 306 306 307 307 306 304 302 303 303 307 311 309 310 309 308 309 309 308 308 310 311 311 310 309 310 310 305 304 306 306 307 308 307 308 310 309 311
296 298 298 298 297 297 298 300 307 306 305 305 305 306 306 305 303 305 306 308 310 309 309 309 308 308 309 308 309 310 310 310 310 309 311 309 308 304 304 304 306 307 305 306 308 309 309
298 297 297 298 297 297 298 300 300 305 304 303 302 305 306 304 304 305 307 308 309 310 309 308 308 309 308 309 308 310 309 309 308 306 308 309 310 313 304 303 306 308 306 305 306 309 306
297 298 298 298 298 298 301 303 304 305 304 302 301 302 303 304 300 300 305 308 306 306 305 306 308 309 309 306 308 308 309 307 308 308 306 310 309 307 309 307 311 306 307 308 307 308 306
297 297 298 298 297 299 304 305 305 305 304 303 300 300 302 299 298 301 303 304 308 305 303 306 308 309 309 305 307 307 305 306 308 307 309 309 310 308 307 305 306 304 307 307 305 304 306
297 298 298 297 297 299 304 305 304 304 302 302 298 299 301 299 297 299 302 302 304 307 304 305 306 306 305 306 306 305 305 305 306 305 305 306 305 306 306 308 308 305 305 305 303 304 304
297 298 298 297 299 300 304 305 304 304 302 301 298 299 301 302 296 297 299 301 303 304 305 304 302 303 304 301 302 303 305 302 303 306 303 306 304 305 305 305 304 305 306 306 305 304 303
Wind_Speed
24 25 26 28 29 31 33 34 21 21 24 24 24 22 20 18 20 17 18 18 12 8 16 14 10 14 12 4 9 5 13 16 8 4 6 6 16 15 13 8 10 14 10 13 7 10 11
23 24 25 26 28 31 31 36 27 20 22 23 23 22 21 21 19 16 18 16 14 10 11 13 9 12 8 5 3 7 13 13 8 5 3 9 3 4 12 6 7 10 3 12 17 5 10
31 28 28 28 29 29 30 30 36 20 22 22 21 22 22 23 20 18 18 16 14 10 10 8 8 11 11 16 8 9 13 10 9 6 5 5 8 8 5 4 8 16 6 6 9 4 4
30 30 28 28 29 29 27 29 33 23 25 22 21 22 22 23 22 22 17 12 9 7 6 6 6 8 8 9 12 12 13 10 7 8 6 6 3 8 3 6 4 9 5 5 6 1 5
32 32 31 29 28 29 26 27 28 30 31 23 20 20 21 22 22 20 14 7 3 5 5 4 5 6 7 7 9 11 6 7 8 7 1 6 3 2 4 3 3 0 4 8 4 1 7
31 31 34 36 33 31 29 29 34 37 32 26 18 20 20 20 21 16 7 2 1 2 2 3 6 7 6 8 11 12 14 9 6 3 4 2 2 1 6 3 10 5 7 6 6 3 7
32 33 30 36 40 39 32 35 39 36 36 30 16 17 17 18 18 12 1 3 3 1 4 5 5 6 10 9 9 7 11 5 4 2 3 1 3 6 10 8 5 8 11 9 6 5 3
34 34 35 33 33 38 42 37 40 37 32 32 17 15 16 15 12 5 3 3 3 0 4 4 4 5 4 4 3 3 1 3 2 3 3 3 4 5 7 8 7 10 16 6 4 5 3
35 35 36 38 37 33 35 38 41 40 37 31 20 13 14 10 4 1 5 3 1 1 1 4 3 3 4 1 2 2 4 2 3 4 3 4 3 5 9 15 11 9 10 8 5 12 8
36 35 37 36 36 37 34 34 37 38 34 30 20 11 11 6 2 4 4 3 2 2 3 3 1 1 3 2 3 5 5 2 3 3 4 4 3 5 9 5 2 6 10 10 10 2 4
37 37 38 39 36 40 36 37 38 36 32 38 24 12 10 4 6 7 5 3 4 3 3 5 1 1 2 2 3 2 2 3 5 2 1 2 6 7 9 5 6 6 15 16 13 5 4
35 35 36 37 39 39 42 35 36 34 31 41 21 12 10 6 9 7 6 6 6 5 4 2 2 2 2 5 3 3 2 5 1 6 5 2 1 3 2 5 3 20 14 5 3 2 3
34 35 37 35 38 41 40 36 31 31 27 40 22 12 9 8 9 10 10 8 4 4 3 3 4 3 3 1 1 1 2 3 2 3 5 8 5 6 7 6 8 18 7 2 3 2 4
35 35 37 38 38 37 45 42 33 24 25 39 21 13 14 11 12 13 13 3 3 5 5 4 4 2 1 3 1 2 1 3 4 4 4 3 2 7 8 4 2 2 4 3 4 3 3
35 35 38 38 36 35 39 45 31 30 24 36 20 20 17 10 14 17 6 2 6 6 6 10 6 3 1 2 2 2 1 2 0 2 5 4 3 3 1 2 1 4 5 2 5 3 3
35 35 36 36 36 36 41 44 32 17 26 32 26 20 14 15 17 15 2 5 4 4 6 10 6 7 5 3 2 1 2 1 2 3 3 5 4 3 4 1 3 4 1 3 3 3 3
36 36 36 37 39 41 38 42 27 8 27 28 24 10 17 19 17 8 4 6 5 6 4 6 5 4 3 5 4 2 2 1 1 1 1 4 4 3 3 5 2 4 2 4 4 2 3
37 38 38 39 42 44 39 45 24 29 27 30 12 2 26 24 5 5 5 4 5 6 3 3 4 2 6 8 3 4 4 3 4 3 2 2 5 3 1 2 0 0 0 3 4 2 2
39 39 41 42 42 42 42 44 32 25 38 32 10 7 24 26 5 4 4 6 2 4 5 5 5 2 4 6 5 4 3 3 0 3 3 1 2 3 5 5 3 2 3 2 4 3 3
39 38 40 42 42 42 41 44 28 17 42 26 8 4 7 19 6 4 4 9 4 6 4 4 3 3 5 3 2 6 3 3 4 3 5 3 3 4 5 5 3 3 4 4 5 3 4
39 38 37 38 39 40 42 43 23 24 52 24 9 4 8 7 10 7 5 7 5 5 2 8 2 3 4 4 3 3 4 2 4 3 4 3 3 3 0 1 2 1 3 5 7 4 5
39 38 38 38 38 41 45 38 18 35 43 16 9 6 10 6 15 13 4 5 8 4 5 3 4 5 4 4 5 6 7 3 4 3 2 2 1 2 4 4 4 3 5 4 5 2 5
39 39 38 36 37 39 42 26 12 38 42 13 8 8 9 10 5 7 5 5 12 9 2 7 6 5 7 6 6 12 6 12 8 7 4 3 4 3 2 3 3 6 7 8 4 4 6
39 39 38 36 37 40 38 26 12 41 38 7 12 6 4 3 6 7 8 4 12 6 6 3 11 6 5 12 13 12 13 10 6 2 6 5 4 2 1 2 1 5 1 3 7 4 5
37 37 36 34 37 40 38 23 14 43 43 18 4 2 2 3 3 5 3 5 11 14 5 5 5 9 15 10 4 4 3 3 3 4 3 5 4 3 3 3 5 3 3 4 4 1 4
35 36 34 33 37 41 24 14 11 43 46 16 1 2 1 6 1 1 3 12 5 4 3 4 8 11 6 3 3 4 4 4 4 2 3 4 4 3 2 3 5 4 1 3 3 2 7
36 33 31 31 38 35 9 6 20 36 45 21 4 1 1 8 5 3 3 5 9 7 4 4 4 3 2 2 2 3 3 5 5 7 5 3 3 5 4 2 6 5 2 3 5 5 5
33 32 29 29 34 26 6 20 27 32 31 28 9 6 2 8 11 4 6 6 9 9 5 8 5 1 3 3 3 3 3 5 3 5 6 6 5 3 2 2 7 5 4 6 6 9 8
31 29 27 27 27 15 2 21 30 35 33 30 9 6 7 8 11 15 15 13 11 10 11 6 3 3 4 4 1 2 1 1 4 3 2 3 5 4 7 4 3 6 5 9 15 12 7
Wind_Direction
314 316 317 316 315 315 317 306 300 320 314 315 324 324 321 320 316 314 309 309 285 284 304 310 307 314 325 285 265 273 310 327 326 301 280 234 275 212 194 188 178 203 206 177 172 3 322
320 309 311 311 313 312 313 311 286 308 308 308 319 323 321 317 314 311 303 304 306 268 283 307 309 310 304 281 292 297 312 323 316 299 237 189 181 214 224 191 196 182 253 138 168 282 337
310 312 305 308 308 310 313 311 288 298 300 305 314 321 321 325 320 315 303 299 296 275 273 293 309 296 291 267 252 281 293 309 326 312 278 222 342 2 346 140 174 164 121 112 157 147 299
297 306 311 304 301 304 313 313 301 295 299 297 309 317 322 325 321 322 318 305 288 270 275 298 292 267 262 293 282 256 280 290 309 310 276 208 338 312 297 355 102 143 55 107 36 335 327
292 290 295 307 307 295 303 306 307 294 287 289 308 311 320 324 324 326 322 316 269 286 290 292 258 265 276 267 276 267 254 289 308 323 201 179 286 284 67 354 111 206 102 87 63 36 279
336 316 299 291 301 301 292 309 295 300 293 283 299 304 317 324 327 330 327 312 275 302 261 261 261 293 280 307 325 273 259 240 288 323 74 126 79 327 133 282 183 144 109 124 90 316 159
338 337 324 305 302 294 298 294 290 286 287 277 292 304 314 326 329 327 323 136 108 84 243 246 288 292 313 329 7 37 175 206 234 240 167 130 173 191 197 247 318 118 122 118 154 346 27
335 335 333 327 318 309 296 298 300 310 288 277 284 300 307 329 329 318 153 140 107 348 309 272 234 281 331 356 28 91 160 273 275 140 145 146 139 201 179 221 235 139 121 76 101 183 282
335 335 332 329 329 319 301 300 293 310 271 280 273 284 303 327 319 180 168 144 121 281 259 274 247 283 311 306 146 169 253 213 251 119 207 129 102 220 165 224 153 126 126 119 155 180 208
335 333 331 329 326 324 314 304 305 296 272 289 272 275 295 316 201 181 186 151 178 209 66 274 266 262 269 289 291 242 262 260 40 139 76 57 347 296 123 120 176 120 140 122 108 213 171
333 332 331 331 326 326 318 300 301 304 295 266 261 262 274 269 173 185 165 152 172 154 52 272 222 313 330 258 311 318 242 303 84 120 85 134 214 178 116 171 217 148 157 162 155 172 143
331 330 331 331 328 322 320 302 292 304 289 257 249 247 263 213 188 190 182 162 148 45 262 248 167 231 205 195 253 285 262 215 267 45 60 122 163 79 170 247 239 131 108 72 64 107 29
331 331 328 327 327 323 321 308 289 299 294 246 239 229 237 170 165 176 161 150 48 134 281 244 200 203 208 282 128 279 30 15 64 88 11 25 18 344 27 33 49 115 114 104 80 37 164
326 328 326 326 324 323 321 314 317 288 281 236 218 211 186 164 161 165 156 64 118 203 199 211 122 104 322 20 30 127 57 30 30 91 61 76 59 9 341 54 62 98 247 124 124 161 161
323 322 321 323 325 324 321 322 309 295 250 223 192 171 168 170 167 169 160 100 201 207 176 154 133 146 271 299 181 65 173 121 252 118 120 108 23 321 31 331 117 290 36 60 95 19 78
320 322 322 322 321 324 318 322 313 277 227 201 174 164 148 168 166 173 117 242 213 206 139 146 172 201 187 209 139 71 165 302 159 183 176 187 84 14 306 334 19 104 161 50 1 134 147
317 318 321 323 321 327 318 323 303 29 192 172 165 134 154 170 165 183 213 233 219 192 164 144 190 174 155 182 159 168 170 314 131 342 27 138 93 302 19 19 7 13 56 67 117 99 143
312 312 315 316 322 325 320 321 301 256 212 165 183 125 159 168 159 195 215 225 224 155 154 137 132 192 156 162 137 220 174 143 177 176 73 49 124 106 62 252 202 68 178 105 111 251 44
308 308 309 313 319 322 320 315 299 284 193 178 166 117 164 176 188 206 244 229 190 143 168 158 175 182 151 160 145 203 120 339 47 53 104 181 16 71 358 354 6 188 200 113 88 67 197
306 308 310 313 316 319 317 309 305 238 191 171 181 129 148 196 211 187 205 191 197 175 152 148 134 143 123 124 161 171 108 42 85 91 53 114 115 147 177 208 173 203 196 156 122 110 184
309 309 310 311 314 317 312 315 304 226 188 171 192 175 174 181 199 208 179 199 182 148 171 161 125 148 145 150 98 91 108 104 51 65 39 72 101 85 78 71 111 250 244 187 192 181 166
309 311 311 311 316 316 316 322 295 192 175 183 185 147 176 171 156 185 219 219 173 149 130 182 146 180 162 129 173 171 139 167 178 80 87 35 112 85 9 0 29 318 290 261 242 196 245
310 312 313 312 315 314 317 331 268 196 175 197 215 162 154 148 139 152 205 207 177 124 103 174 171 114 110 141 103 155 156 173 162 143 141 114 123 93 266 341 354 310 226 210 209 200 196
310 312 313 314 316 314 320 325 263 198 181 184 170 181 136 144 155 183 176 199 154 139 126 60 143 110 145 126 98 82 90 110 116 134 139 129 101 96 184 28 308 241 229 211 212 240 244
310 311 314 315 315 311 310 303 291 193 186 167 184 183 143 114 148 207 178 124 99 102 82 85 62 122 142 113 88 55 359 57 46 26 71 131 120 138 150 204 295 295 220 180 169 4 330
311 312 315 316 314 311 315 282 212 192 185 171 164 82 81 122 35 155 132 145 127 109 52 68 102 133 131 86 92 145 181 179 190 111 28 100 94 120 157 168 223 248 130 107 105 317 11
310 312 313 318 313 326 294 278 199 192 189 189 239 88 111 103 41 96 115 135 135 99 99 121 135 112 99 92 109 149 219 168 160 164 178 141 152 182 204 209 283 246 161 92 96 220 135
311 313 314 317 311 332 295 214 202 188 189 190 219 184 148 103 57 92 128 124 128 132 135 155 104 354 54 94 131 193 151 212 128 171 173 169 160 194 163 158 262 192 99 163 172 153 152
312 308 311 310 314 324 166 191 185 187 188 185 166 145 138 108 109 94 92 102 119 134 131 132 123 126 146 97 129 118 145 88 146 208 108 199 184 185 179 215 243 202 185 156 165 162 171